Weather observations for the past three days for
Corpus Christi, Corpus Christi International Airport
Imperial (Metric)
Date Time (cdt) Wind (mph) Vis. (mi.) Weather Sky Cond. Temperature (ºF) Relative Humidity Wind Chill (°F) Heat Index (°F) Pressure Precipitation (in)
Air Dwpt 6 hour altimeter (in) sea level (mb) 1 hr 3 hr 6 hr
Max. Min.
13 14:51 E 8 10.00 Partly Cloudy FEW037 FEW045TCU FEW065 SCT130 SCT250 96.1 75 51% 108 29.88 1011.5
13 13:51 E 8 10.00 Mostly Cloudy FEW034 SCT039TCU SCT055 BKN130 BKN250 95 75.9 54% 108 29.89 1012.0
13 12:51 E 6 10.00 Mostly Cloudy FEW028 SCT039TCU BKN060 BKN130 BKN250 97 73.9 98.1 77 48% 108 29.9 1012.5
13 11:51 SW 5 10.00 Mostly Cloudy FEW024 SCT035TCU SCT060 SCT130 BKN250 93.9 75.9 56% 107 29.91 1012.7
13 10:51 S 3 10.00 Mostly Cloudy FEW023 SCT030 SCT035 BKN130 BKN250 89.1 75.9 65% 100 29.92 1013.0
13 09:51 S 5 10.00 Mostly Cloudy FEW017 SCT026 SCT045 BKN160 BKN250 87.1 75.9 70% 98 29.92 1013.1
13 08:51 Calm 10.00 Partly Cloudy FEW022 FEW031 SCT095 SCT160 84.9 77 77% 95 29.91 1012.8
13 06:51 S 3 10.00 A Few Clouds FEW022 FEW060 FEW110 77 75 81 77 94% 78 29.87 1011.4
13 05:51 S 5 10.00 A Few Clouds FEW022 FEW060 FEW110 79 75.9 90% 83 29.86 1010.9
13 04:51 S 5 10.00 Partly Cloudy FEW022 SCT060 SCT110 79 75.9 90% 83 29.86 1010.9
13 03:51 Calm 10.00 A Few Clouds FEW022 79 75.9 90% 83 29.86 1010.8
13 02:52 S 6 10.00 A Few Clouds FEW022 79 75.9 90% 83 29.86 1010.9
13 01:51 SE 6 10.00 A Few Clouds FEW022 80.1 75.9 87% 85 29.87 1011.4
13 00:51 SE 5 10.00 A Few Clouds FEW022 81 75.9 88 81 85% 87 29.88 1011.7
12 23:51 SE 6 10.00 A Few Clouds FEW024 81 75.9 85% 87 29.89 1012.0
12 22:51 SE 7 10.00 A Few Clouds FEW023 FEW250 84 75.9 77% 93 29.89 1011.9
12 21:51 SE 10 10.00 A Few Clouds FEW020 FEW120 FEW250 84.9 75.9 75% 94 29.87 1011.3
12 20:51 E 13 10.00 A Few Clouds FEW021 FEW120 FEW250 84.9 75.9 75% 94 29.86 1011.2
12 19:51 E 13 10.00 Mostly Cloudy FEW024 FEW100 BKN160 BKN250 87.1 75 67% 97 29.86 1010.9
12 18:51 E 14 10.00 Mostly Cloudy FEW025 FEW060 SCT090 BKN130 BKN250 88 75.9 97 88 68% 99 29.85 1010.7
12 17:51 E 16 G 22 10.00 Thunderstorm Light Rain FEW008 FEW030CB BKN100 BKN140 BKN250 88 75 66% 98 29.86 1011.0
12 16:51 SE 15 G 23 10.00 Partly Cloudy FEW016 FEW030 SCT100 SCT140 SCT250 93.9 75 54% 106 29.85 1010.6
12 15:51 SE 12 G 23 10.00 Partly Cloudy FEW031 FEW042 SCT060 SCT140 SCT250 96.1 75.9 52% 110 29.85 1010.6
12 14:51 SE 15 G 21 10.00 Partly Cloudy FEW033 SCT042TCU SCT055 SCT250 93.9 75.9 56% 107 29.87 1011.4
12 13:51 Vrbl 3 10.00 Partly Cloudy FEW030 SCT042 SCT050 SCT150 96.1 77 54% 111 29.89 1011.9
12 12:51 S 6 10.00 Mostly Cloudy FEW027 SCT036 BKN043 BKN250 95 75 95 79 53% 107 29.9 1012.5
12 11:51 Vrbl 3 10.00 Mostly Cloudy FEW021 FEW033 SCT050 SCT140 BKN230 93 73.9 54% 103 29.91 1012.7
12 10:51 SE 3 10.00 Mostly Cloudy FEW025 SCT033 SCT042 SCT130 BKN200 88 75 66% 98 29.92 1012.9
12 09:51 Vrbl 3 10.00 Partly Cloudy FEW021 SCT028 SCT036 SCT230 89.1 80.1 75% 106 29.92 1013.0
12 08:51 NW 3 10.00 Partly Cloudy FEW019 FEW031 FEW040 SCT250 87.1 81 82% 104 29.92 1012.9
12 07:51 Calm 10.00 Mostly Cloudy SCT019 BKN033 BKN045 BKN250 82.9 81 94% 96 29.9 1012.4
12 06:51 NW 3 10.00 Partly Cloudy SCT020 SCT140 SCT250 79 78.1 81 79 97% 83 29.88 1011.7
12 05:51 Calm 10.00 Partly Cloudy FEW022 FEW140 SCT250 80.1 75.9 87% 85 29.87 1011.4
12 04:51 SE 3 10.00 Partly Cloudy FEW022 SCT140 SCT250 80.1 75.9 87% 85 29.86 1010.8
12 03:51 SE 5 10.00 Mostly Cloudy FEW022 BKN250 79 75.9 90% 83 29.85 1010.6
12 02:51 Calm 10.00 Partly Cloudy FEW022 SCT250 79 75.9 90% 83 29.85 1010.6
12 01:51 S 5 10.00 Partly Cloudy SCT023 SCT250 80.1 75.9 87% 85 29.86 1011.0
12 00:51 SE 6 10.00 A Few Clouds FEW021 FEW150 FEW250 81 75.9 91 81 85% 87 29.86 1011.1
11 23:51 SE 7 10.00 A Few Clouds FEW023 FEW150 FEW250 84 75.9 77% 93 29.86 1010.9
11 22:51 SE 8 10.00 A Few Clouds FEW023 FEW150 FEW250 84.9 75.9 75% 94 29.85 1010.5
11 21:51 SE 9 10.00 A Few Clouds FEW018 FEW120 FEW250 84.9 75.9 75% 94 29.85 1010.6
11 20:51 SE 9 10.00 A Few Clouds FEW022 FEW110 FEW250 84.9 75.9 75% 94 29.81 1009.2
11 19:51 SE 13 10.00 A Few Clouds FEW023 FEW050 FEW180 88 75.9 68% 99 29.8 1008.9
11 18:51 SE 13 10.00 A Few Clouds FEW030 FEW050 FEW150 91 75.9 96.1 91 61% 103 29.78 1008.2
11 17:51 SE 16 10.00 A Few Clouds FEW028 FEW037 FEW055 93 77 60% 107 29.77 1007.9
11 16:51 SE 17 10.00 A Few Clouds FEW030 FEW040 FEW060 93.9 77 58% 108 29.78 1008.2
11 15:51 SE 15 G 21 10.00 A Few Clouds FEW033 FEW041 FEW060 95 75.9 54% 108 29.79 1008.5
11 14:51 SE 9 10.00 A Few Clouds FEW033 FEW044 FEW050 95 73 49% 105 29.8 1009.0
11 13:51 SE 7 10.00 Mostly Cloudy FEW027 BKN040 BKN050 91 75.9 61% 103 29.83 1009.9
11 12:51 S 3 10.00 Partly Cloudy FEW022 FEW029 SCT042 93 75 95 75.9 56% 104 29.84 1010.4
11 11:51 SE 5 10.00 Partly Cloudy FEW022 FEW026 SCT033 93 78.1 62% 109 29.86 1011.1
11 10:51 Vrbl 3 10.00 Partly Cloudy FEW020 FEW025 SCT031 91 79 68% 108 29.87 1011.2
11 09:51 Vrbl 3 10.00 Partly Cloudy FEW020 SCT027 SCT035 88 80.1 77% 105 29.87 1011.2
11 08:51 Calm 10.00 A Few Clouds FEW017 FEW024 86 81 85% 102 29.86 1011.0
11 07:51 Calm 10.00 A Few Clouds FEW017 82.9 81 94% 96 29.85 1010.6
11 06:51 Calm 10.00 A Few Clouds FEW017 FEW250 75.9 75.9 80.1 75.9 100% 75 29.84 1010.2
11 05:51 Calm 10.00 A Few Clouds FEW017 FEW250 77 77 100% 78 29.83 1010.1
11 04:51 Calm 10.00 A Few Clouds FEW017 FEW250 77 75.9 96% 78 29.81 1009.4
11 03:51 Calm 10.00 A Few Clouds FEW017 FEW250 78.1 77 97% 81 29.82 1009.6
11 02:51 S 3 10.00 A Few Clouds FEW018 FEW250 79 77 94% 83 29.82 1009.7
11 01:51 SE 3 10.00 A Few Clouds FEW020 FEW250 79 77 94% 83 29.84 1010.2
11 00:51 SE 3 10.00 A Few Clouds FEW023 FEW250 79 78.1 91 79 97% 83 29.84 1010.3
10 23:51 SE 6 10.00 A Few Clouds FEW023 FEW250 80.1 78.1 94% 86 29.83 1010.1
10 22:51 Calm 10.00 A Few Clouds FEW022 FEW250 81 79 94% 89 29.82 1009.6
10 21:51 SE 6 10.00 A Few Clouds FEW075 FEW090 FEW250 82.9 79 88% 94 29.8 1008.8
10 20:51 SE 8 10.00 A Few Clouds FEW050 FEW090 FEW250 84.9 77 77% 95 29.78 1008.3
10 19:51 E 10 10.00 A Few Clouds FEW050 FEW100 FEW250 88 77 70% 100 29.77 1007.8
10 18:51 E 14 10.00 Partly Cloudy FEW050 FEW065 SCT100 SCT160 91 75 96.1 87.1 59% 102 29.75 1007.3
10 17:51 E 13 10.00 A Few Clouds FEW045 FEW075 FEW180 93.9 73.9 52% 104 29.73 1006.7
10 16:51 E 12 10.00 A Few Clouds FEW040 FEW050 FEW250 95 75 53% 107 29.75 1007.3
10 15:51 NE 9 10.00 A Few Clouds FEW041 FEW250 96.1 71.1 44% 104 29.78 1008.2
Date Time (cdt) Wind (mph) Vis. (mi.) Weather Sky Cond. Air Dwpt Max. Min. Relative Humidity Wind Chill (°F) Heat Index (°F) altimeter (in) sea level (mb) 1 hr 3 hr 6 hr
6 hour
Temperature (ºF) Pressure Precipitation (in)